{"data":{"norad_id":57243,"intl_designator":"2023-094AB","name":"STARLINK-6346","alt_names":[],"object_type":"PAYLOAD","status":"ACTIVE","operator":null,"country":"US","launch_date":"2023-07-07","launch_site_code":"AFWTR","launch_vehicle":null,"mission":null,"orbit_class":"UNKNOWN","rcs_meters":null,"size_class":null,"mass_kg":null,"dimensions":null,"purposes":["comms"],"wikipedia_slug":null,"has_3d_model":false,"image_url":null,"decayed_at":null,"tle_current":{"epoch":"2026-09-20T07:33:50.457312Z","epoch_age_seconds":140189,"freshness":"FRESH","line1":"1 57243U 23094AB  26263.31516733 -.00000654  00000+0 -14259-4 0  9998","line2":"2 57243  43.0042   0.9053 0001060 272.0463  88.0267 15.27573130177004","mean_motion":15.2757313,"eccentricity":0.000106,"inclination_deg":43.0042,"raan_deg":0.9053,"arg_perigee_deg":272.0463,"mean_anomaly_deg":88.0267,"bstar":-1.4259e-5,"rev_number":17700,"period_min":94.2671726623,"perigee_km":482.34237946148,"apogee_km":483.79695527496,"semimajor_km":6861.2066673682,"source":"CELESTRAK","updated_at":"2026-09-21T09:00:33.589450Z"}}}